EW2485 Weather Reports


Display with metric or nautical units.
time (UTC)temp
F
wind
direction
speed
MPH
gust
MPH
rain 1hr
in
rain 24hr
in
rain mn
in
humidity
%
barometer
mb
20260904110059 65 302 2.0 10.0 0.00 0.97 0.00 94 1013.3
20260904110011 65 321 2.0 10.0 0.00 0.97 0.00 94 1013.2
20260904104605 65 354 2.0 7.0 0.00 0.97 0.00 94 1013.1
20260904103023 65 223 2.0 7.0 0.00 0.97 0.00 94 1013.1
20260904101550 65 317 2.0 8.0 0.00 0.97 0.00 94 1012.8
20260904100009 66 298 3.0 8.0 0.00 0.97 0.00 94 1012.8
20260904094545 66 152 1.0 4.0 0.00 0.97 0.00 94 1012.8
20260904093049 66 336 4.0 7.0 0.00 0.97 0.00 95 1012.7
20260904091508 66 314 3.0 7.0 0.00 0.97 0.00 94 1012.7
20260904090028 66 206 1.0 5.0 0.00 0.97 0.00 95 1012.6
20260904084546 66 352 2.0 7.0 0.00 0.97 0.00 95 1012.5
20260904083005 66 269 0.0 2.0 0.00 0.97 0.00 95 1012.2
20260904081527 66 241 1.0 3.0 0.00 0.97 0.00 95 1012.0
20260904080118 66 206 0.0 2.0 0.00 0.98 0.00 95 1011.7
20260904074549 66 89 0.0 3.0 0.00 0.98 0.00 95 1011.6
20260904073032 66 269 0.0 3.0 0.00 0.98 0.00 95 1011.5
20260904071553 66 241 0.0 3.0 0.00 0.98 0.00 95 1011.4
20260904070036 66 178 0.0 2.0 0.00 0.98 0.00 95 1011.5
20260904064541 67 314 0.0 3.0 0.00 0.98 0.00 95 1011.7
20260904063003 67 241 0.0 3.0 0.00 0.98 0.00 94 1011.7
20260904061532 67 63 1.0 3.0 0.00 0.98 0.00 95 1011.7
20260904060118 67 11 1.0 3.0 0.00 0.98 0.00 95 1011.9
20260904054525 67 1 2.0 6.0 0.00 0.98 0.00 95 1012.1
20260904053139 67 35 2.0 4.0 0.00 0.98 0.00 95 1012.2
20260904051510 67 269 1.0 4.0 0.00 0.98 0.00 94 1012.2
20260904050042 67 46 0.0 2.0 0.01 1.03 0.00 94 1012.2
20260904044529 67 178 1.0 2.0 0.20 1.03 0.00 94 1012.3
20260904043010 68 28 1.0 4.0 0.79 1.03 0.00 93 1012.4
20260904041540 68 46 3.0 7.0 0.92 1.03 0.00 93 1012.4
20260904040056 69 20 5.0 16.0 0.93 1.21 1.02 93 1012.6
20260904034516 70 35 4.0 8.0 0.71 0.99 0.82 94 1012.4
20260904033100 70 216 2.0 6.0 0.16 0.44 0.28 94 1012.7
20260904031534 70 117 1.0 4.0 0.02 0.30 0.11 94 1011.8
20260904030016 70 197 1.0 3.0 0.00 0.40 0.09 94 1011.9
20260904024610 70 28 1.0 3.0 0.00 0.40 0.09 94 1011.9
20260904023024 70 89 1.0 5.0 0.01 0.40 0.09 94 1012.0
20260904021547 70 46 2.0 4.0 0.03 0.40 0.09 93 1012.1
20260904020012 71 15 4.0 7.0 0.03 0.99 0.09 93 1012.3
20260904014536 71 28 3.0 6.0 0.03 0.99 0.09 93 1012.4
20260904013054 71 13 2.0 5.0 0.02 0.98 0.08 93 1012.5
20260904011514 71 223 1.0 3.0 0.00 0.96 0.06 92 1012.6
20260904010045 71 1 1.0 4.0 0.00 0.97 0.06 92 1012.5
20260904004508 71 1 3.0 6.0 0.00 0.97 0.06 92 1012.4
20260904003040 72 331 1.0 3.0 0.00 0.97 0.06 92 1012.3
20260904001530 72 20 2.0 6.0 0.00 0.97 0.06 92 1012.2
20260904000011 73 340 2.0 5.0 0.00 0.97 0.06 90 1012.0
20260903234546 73 291 2.0 4.0 0.00 0.97 0.06 90 1012.0
20260903233007 75 1 1.0 4.0 0.00 0.97 0.06 89 1012.2
20260903231530 76 335 2.0 4.0 0.00 0.97 0.06 89 1012.2
20260903230106 78 303 1.0 3.0 0.00 0.97 0.06 88 1012.0
20260903224507 79 117 0.0 2.0 0.00 0.97 0.06 88 1011.8
20260903223043 79 165 0.0 5.0 0.00 0.97 0.06 86 1011.8
20260903221548 79 223 1.0 3.0 0.00 0.97 0.06 85 1011.6
20260903220007 80 223 0.0 3.0 0.00 0.97 0.06 85 1011.5
20260903214529 80 295 1.0 9.0 0.00 0.97 0.06 84 1011.5
20260903213108 80 241 1.0 5.0 0.00 0.97 0.06 85 1011.5
20260903213001 80 241 1.0 5.0 0.00 0.97 0.06 85 1011.5
20260903211544 80 335 3.0 6.0 0.00 0.97 0.06 85 1011.8
20260903210027 79 276 2.0 7.0 0.00 0.97 0.06 86 1011.9
20260903204549 79 117 5.0 8.0 0.00 0.97 0.06 85 1012.0
20260903203023 79 54 3.0 6.0 0.00 0.97 0.06 86 1012.2
20260903201532 78 314 4.0 7.0 0.00 0.97 0.06 86 1012.3
20260903200011 78 300 5.0 10.0 0.00 0.97 0.06 85 1012.4
20260903194549 78 324 5.0 12.0 0.00 0.97 0.06 85 1012.3
20260903193031 78 327 4.0 8.0 0.00 0.97 0.06 85 1012.3
20260903191553 79 269 4.0 7.0 0.00 0.97 0.06 85 1012.4
20260903190013 79 340 6.0 11.0 0.00 0.97 0.06 84 1012.6
20260903184545 79 326 6.0 11.0 0.00 0.97 0.06 85 1012.6
20260903183055 80 331 4.0 17.0 0.00 0.97 0.06 84 1012.8
20260903181516 79 250 5.0 11.0 0.00 0.97 0.06 86 1012.9
20260903180039 78 222 4.0 13.0 0.00 0.97 0.06 87 1012.9
20260903174507 77 295 5.0 10.0 0.00 0.97 0.06 87 1013.2
20260903173032 76 1 3.0 9.0 0.00 0.97 0.06 88 1013.2
20260903171548 78 316 3.0 12.0 0.00 0.97 0.06 87 1013.1
20260903170039 78 233 8.0 13.0 0.00 0.97 0.06 88 1013.1
20260903164524 77 259 4.0 17.0 0.00 0.97 0.06 89 1013.3
20260903163045 76 295 4.0 10.0 0.00 0.97 0.06 90 1013.4
20260903161514 76 210 6.0 14.0 0.00 0.97 0.06 89 1013.5
20260903160038 75 220 3.0 13.0 0.00 0.99 0.06 90 1013.7
20260903154542 73 252 2.0 6.0 0.00 0.99 0.06 92 1013.9
20260903153100 73 269 2.0 7.0 0.00 0.99 0.06 91 1014.1
20260903153002 73 241 1.0 7.0 0.00 0.99 0.06 91 1014.1
20260903151524 72 178 1.0 7.0 0.00 0.99 0.06 91 1014.1
20260903150053 73 190 3.0 10.0 0.00 1.29 0.06 91 1014.1
20260903144559 72 197 1.0 6.0 0.00 1.29 0.06 91 1013.9
20260903143018 72 117 1.0 9.0 0.00 1.29 0.06 92 1013.9
20260903141542 71 331 1.0 4.0 0.00 1.29 0.06 92 1013.8
20260903140035 71 209 2.0 8.0 0.00 1.35 0.06 93 1013.9
20260903134504 71 171 5.0 12.0 0.00 1.35 0.06 95 1013.9
20260903133046 70 219 3.0 6.0 0.00 1.35 0.06 95 1013.9
20260903131516 70 117 1.0 5.0 0.00 1.35 0.06 96 1014.0
20260903130042 69 170 2.0 5.0 0.00 1.35 0.06 97 1014.0
20260903124559 69 173 2.0 6.0 0.00 1.35 0.06 96 1014.3
20260903123026 68 229 2.0 6.0 0.00 1.35 0.06 96 1014.1
20260903121601 68 178 2.0 4.0 0.00 1.35 0.06 96 1014.2
20260903120011 68 178 1.0 2.0 0.00 1.35 0.06 97 1014.0
20260903114534 67 178 0.0 3.0 0.00 1.35 0.06 97 1014.0
20260903113051 65 223 0.0 2.0 0.00 1.35 0.06 96 1013.7
20260903111515 65 206 0.0 2.0 0.00 1.35 0.06 95 1013.4